owner,sensor,date,latitude,longitude,air_temperature,qcFlag 
DISL,ioos:station:DISL:CATA:1,2017-12-01T00:00:00Z,30.3085,-88.1395,18.8,11111222 
DISL,ioos:station:DISL:CATA:1,2017-12-01T00:30:00Z,30.3085,-88.1395,19.0,1111122 
DISL,ioos:station:DISL:CATA:1,2017-12-01T01:00:00Z,30.3085,-88.1395,19.0,11111222 
DISL,ioos:station:DISL:CATA:1,2017-12-01T01:30:00Z,30.3085,-88.1395,19.27,1111122 
DISL,ioos:station:DISL:CATA:1,2017-12-01T02:00:00Z,30.3085,-88.1395,19.2,11111222 
DISL,ioos:station:DISL:CATA:1,2017-12-01T02:30:00Z,30.3085,-88.1395,19.07,1111122 
DISL,ioos:station:DISL:CATA:1,2017-12-01T03:00:00Z,30.3085,-88.1395,18.6,11111222 
DISL,ioos:station:DISL:CATA:1,2017-12-01T03:30:00Z,30.3085,-88.1395,18.31,1111122 
DISL,ioos:station:DISL:CATA:1,2017-12-01T04:00:00Z,30.3085,-88.1395,18.2,11111222 
DISL,ioos:station:DISL:CATA:1,2017-12-01T04:30:00Z,30.3085,-88.1395,18.42,1111122 
DISL,ioos:station:DISL:CATA:1,2017-12-01T05:00:00Z,30.3085,-88.1395,18.1,11111222 
DISL,ioos:station:DISL:CATA:1,2017-12-01T05:30:00Z,30.3085,-88.1395,18.04,1111122 
DISL,ioos:station:DISL:CATA:1,2017-12-01T06:30:00Z,30.3085,-88.1395,18.0,1111122 
DISL,ioos:station:DISL:CATA:1,2017-12-01T07:00:00Z,30.3085,-88.1395,17.9,11111222 
DISL,ioos:station:DISL:CATA:1,2017-12-01T07:30:00Z,30.3085,-88.1395,18.07,1111122 
DISL,ioos:station:DISL:CATA:1,2017-12-01T08:00:00Z,30.3085,-88.1395,17.9,11111222 
DISL,ioos:station:DISL:CATA:1,2017-12-01T08:30:00Z,30.3085,-88.1395,17.9,1111122 
DISL,ioos:station:DISL:CATA:1,2017-12-01T09:00:00Z,30.3085,-88.1395,17.9,11111222 
DISL,ioos:station:DISL:CATA:1,2017-12-01T09:30:00Z,30.3085,-88.1395,17.87,1111122 
DISL,ioos:station:DISL:CATA:1,2017-12-01T10:00:00Z,30.3085,-88.1395,17.7,11111222 
DISL,ioos:station:DISL:CATA:1,2017-12-01T10:30:00Z,30.3085,-88.1395,17.66,1111122 
DISL,ioos:station:DISL:CATA:1,2017-12-01T11:00:00Z,30.3085,-88.1395,17.7,11111222 
DISL,ioos:station:DISL:CATA:1,2017-12-01T11:30:00Z,30.3085,-88.1395,17.73,1111122 
DISL,ioos:station:DISL:CATA:1,2017-12-01T12:00:00Z,30.3085,-88.1395,17.6,11111222 
DISL,ioos:station:DISL:CATA:1,2017-12-01T12:30:00Z,30.3085,-88.1395,17.25,1111122 
DISL,ioos:station:DISL:CATA:1,2017-12-01T13:00:00Z,30.3085,-88.1395,17.4,11111222 
DISL,ioos:station:DISL:CATA:1,2017-12-01T13:30:00Z,30.3085,-88.1395,17.32,1111122 
DISL,ioos:station:DISL:CATA:1,2017-12-01T14:00:00Z,30.3085,-88.1395,17.5,11111222 
DISL,ioos:station:DISL:CATA:1,2017-12-01T14:30:00Z,30.3085,-88.1395,17.46,1111122 
DISL,ioos:station:DISL:CATA:1,2017-12-01T15:00:00Z,30.3085,-88.1395,17.5,11111222 
DISL,ioos:station:DISL:CATA:1,2017-12-01T15:30:00Z,30.3085,-88.1395,17.42,1111122 
DISL,ioos:station:DISL:CATA:1,2017-12-01T16:00:00Z,30.3085,-88.1395,17.5,11111222 
DISL,ioos:station:DISL:CATA:1,2017-12-01T16:30:00Z,30.3085,-88.1395,17.63,1111122 
DISL,ioos:station:DISL:CATA:1,2017-12-01T17:00:00Z,30.3085,-88.1395,17.5,11111222 
DISL,ioos:station:DISL:CATA:1,2017-12-01T17:30:00Z,30.3085,-88.1395,17.34,1111122 
DISL,ioos:station:DISL:CATA:1,2017-12-01T18:00:00Z,30.3085,-88.1395,17.4,11111222 
DISL,ioos:station:DISL:CATA:1,2017-12-01T18:30:00Z,30.3085,-88.1395,17.68,1111122 
DISL,ioos:station:DISL:CATA:1,2017-12-01T19:00:00Z,30.3085,-88.1395,17.9,11111222 
DISL,ioos:station:DISL:CATA:1,2017-12-01T19:30:00Z,30.3085,-88.1395,19.77,1111122 
DISL,ioos:station:DISL:CATA:1,2017-12-01T20:00:00Z,30.3085,-88.1395,18.8,11111222 
DISL,ioos:station:DISL:CATA:1,2017-12-01T20:30:00Z,30.3085,-88.1395,18.64,1111122 
DISL,ioos:station:DISL:CATA:1,2017-12-01T21:00:00Z,30.3085,-88.1395,19.0,11111222 
DISL,ioos:station:DISL:CATA:1,2017-12-01T21:30:00Z,30.3085,-88.1395,18.77,1111122 
DISL,ioos:station:DISL:CATA:1,2017-12-01T22:00:00Z,30.3085,-88.1395,19.0,11111222 
DISL,ioos:station:DISL:CATA:1,2017-12-01T22:30:00Z,30.3085,-88.1395,18.43,1111122 
DISL,ioos:station:DISL:CATA:1,2017-12-01T23:00:00Z,30.3085,-88.1395,17.9,11111222 
DISL,ioos:station:DISL:CATA:1,2017-12-01T23:30:00Z,30.3085,-88.1395,18.21,1111122 
DISL,ioos:station:DISL:CATA:1,2017-12-02T00:00:00Z,30.3085,-88.1395,17.9,11111222 
DISL,ioos:station:DISL:CATA:1,2017-12-02T00:30:00Z,30.3085,-88.1395,18.0,1111122 
DISL,ioos:station:DISL:CATA:1,2017-12-02T01:00:00Z,30.3085,-88.1395,17.4,11111222 
DISL,ioos:station:DISL:CATA:1,2017-12-02T01:30:00Z,30.3085,-88.1395,16.46,1111122 
DISL,ioos:station:DISL:CATA:1,2017-12-02T02:00:00Z,30.3085,-88.1395,15.6,11111222 
DISL,ioos:station:DISL:CATA:1,2017-12-02T02:30:00Z,30.3085,-88.1395,15.4,1111122 
DISL,ioos:station:DISL:CATA:1,2017-12-02T03:00:00Z,30.3085,-88.1395,15.2,11111222 
DISL,ioos:station:DISL:CATA:1,2017-12-02T03:30:00Z,30.3085,-88.1395,15.1,1111122 
DISL,ioos:station:DISL:CATA:1,2017-12-02T04:00:00Z,30.3085,-88.1395,15.0,11111222 
DISL,ioos:station:DISL:CATA:1,2017-12-02T04:30:00Z,30.3085,-88.1395,14.83,1111122 
DISL,ioos:station:DISL:CATA:1,2017-12-02T05:00:00Z,30.3085,-88.1395,14.7,11111222 
DISL,ioos:station:DISL:CATA:1,2017-12-02T05:30:00Z,30.3085,-88.1395,14.55,1111122 
DISL,ioos:station:DISL:CATA:1,2017-12-02T06:30:00Z,30.3085,-88.1395,14.9,1111122 
DISL,ioos:station:DISL:CATA:1,2017-12-02T07:00:00Z,30.3085,-88.1395,15.0,1111122 
DISL,ioos:station:DISL:CATA:1,2017-12-02T07:30:00Z,30.3085,-88.1395,15.0,11111222 
DISL,ioos:station:DISL:CATA:1,2017-12-02T08:00:00Z,30.3085,-88.1395,15.0,11111222 
DISL,ioos:station:DISL:CATA:1,2017-12-02T08:30:00Z,30.3085,-88.1395,15.1,1111122 
DISL,ioos:station:DISL:CATA:1,2017-12-02T09:00:00Z,30.3085,-88.1395,14.89,1111122 
DISL,ioos:station:DISL:CATA:1,2017-12-02T09:30:00Z,30.3085,-88.1395,14.7,11111222 
DISL,ioos:station:DISL:CATA:1,2017-12-02T10:00:00Z,30.3085,-88.1395,14.8,11111222 
DISL,ioos:station:DISL:CATA:1,2017-12-02T10:30:00Z,30.3085,-88.1395,14.96,1111122 
DISL,ioos:station:DISL:CATA:1,2017-12-02T11:00:00Z,30.3085,-88.1395,14.83,1111122 
DISL,ioos:station:DISL:CATA:1,2017-12-02T11:30:00Z,30.3085,-88.1395,14.8,11111222 
DISL,ioos:station:DISL:CATA:1,2017-12-02T12:00:00Z,30.3085,-88.1395,14.86,1111122 
DISL,ioos:station:DISL:CATA:1,2017-12-02T12:30:00Z,30.3085,-88.1395,14.8,11111222 
DISL,ioos:station:DISL:CATA:1,2017-12-02T13:00:00Z,30.3085,-88.1395,15.0,11111222 
DISL,ioos:station:DISL:CATA:1,2017-12-02T13:30:00Z,30.3085,-88.1395,15.44,1111122 
DISL,ioos:station:DISL:CATA:1,2017-12-02T14:00:00Z,30.3085,-88.1395,15.7,11111222 
DISL,ioos:station:DISL:CATA:1,2017-12-02T14:30:00Z,30.3085,-88.1395,16.15,1111122 
DISL,ioos:station:DISL:CATA:1,2017-12-02T15:00:00Z,30.3085,-88.1395,16.5,11111222 
DISL,ioos:station:DISL:CATA:1,2017-12-02T15:30:00Z,30.3085,-88.1395,16.77,1111122 
DISL,ioos:station:DISL:CATA:1,2017-12-02T16:00:00Z,30.3085,-88.1395,16.4,11111222 
DISL,ioos:station:DISL:CATA:1,2017-12-02T16:30:00Z,30.3085,-88.1395,16.15,1111122 
DISL,ioos:station:DISL:CATA:1,2017-12-02T17:00:00Z,30.3085,-88.1395,16.5,11111222 
DISL,ioos:station:DISL:CATA:1,2017-12-02T17:30:00Z,30.3085,-88.1395,16.8,1111122 
DISL,ioos:station:DISL:CATA:1,2017-12-02T18:00:00Z,30.3085,-88.1395,17.2,11111222 
DISL,ioos:station:DISL:CATA:1,2017-12-02T18:30:00Z,30.3085,-88.1395,17.71,1111122 
DISL,ioos:station:DISL:CATA:1,2017-12-02T19:00:00Z,30.3085,-88.1395,17.8,11111222 
DISL,ioos:station:DISL:CATA:1,2017-12-02T19:30:00Z,30.3085,-88.1395,17.71,1111122 
DISL,ioos:station:DISL:CATA:1,2017-12-02T20:00:00Z,30.3085,-88.1395,18.1,11111222 
DISL,ioos:station:DISL:CATA:1,2017-12-02T20:30:00Z,30.3085,-88.1395,18.22,1111122 
DISL,ioos:station:DISL:CATA:1,2017-12-02T21:00:00Z,30.3085,-88.1395,18.9,11111222 
DISL,ioos:station:DISL:CATA:1,2017-12-02T21:30:00Z,30.3085,-88.1395,21.58,1111122 
DISL,ioos:station:DISL:CATA:1,2017-12-02T22:00:00Z,30.3085,-88.1395,19.3,11111222 
DISL,ioos:station:DISL:CATA:1,2017-12-02T22:30:00Z,30.3085,-88.1395,18.4,1111122 
DISL,ioos:station:DISL:CATA:1,2017-12-02T23:00:00Z,30.3085,-88.1395,17.9,11111222 
DISL,ioos:station:DISL:CATA:1,2017-12-02T23:30:00Z,30.3085,-88.1395,17.86,1111122 
DISL,ioos:station:DISL:CATA:1,2017-12-03T00:00:00Z,30.3085,-88.1395,17.8,11111222 
DISL,ioos:station:DISL:CATA:1,2017-12-03T00:30:00Z,30.3085,-88.1395,17.9,1111122 
DISL,ioos:station:DISL:CATA:1,2017-12-03T01:00:00Z,30.3085,-88.1395,17.9,11111222 
DISL,ioos:station:DISL:CATA:1,2017-12-03T01:30:00Z,30.3085,-88.1395,17.8,1111122 
DISL,ioos:station:DISL:CATA:1,2017-12-03T02:00:00Z,30.3085,-88.1395,17.3,11111222 
DISL,ioos:station:DISL:CATA:1,2017-12-03T02:30:00Z,30.3085,-88.1395,17.15,1111122 
DISL,ioos:station:DISL:CATA:1,2017-12-03T03:00:00Z,30.3085,-88.1395,17.1,11111222 
DISL,ioos:station:DISL:CATA:1,2017-12-03T03:30:00Z,30.3085,-88.1395,16.56,1111122 
DISL,ioos:station:DISL:CATA:1,2017-12-03T04:00:00Z,30.3085,-88.1395,16.2,11111222 
DISL,ioos:station:DISL:CATA:1,2017-12-03T04:30:00Z,30.3085,-88.1395,16.39,1111122 
DISL,ioos:station:DISL:CATA:1,2017-12-03T05:00:00Z,30.3085,-88.1395,15.5,11111222 
DISL,ioos:station:DISL:CATA:1,2017-12-03T05:30:00Z,30.3085,-88.1395,15.27,1111122 
DISL,ioos:station:DISL:CATA:1,2017-12-03T06:30:00Z,30.3085,-88.1395,15.41,1111122 
DISL,ioos:station:DISL:CATA:1,2017-12-03T07:00:00Z,30.3085,-88.1395,15.6,11111222 
DISL,ioos:station:DISL:CATA:1,2017-12-03T07:30:00Z,30.3085,-88.1395,14.83,1111122 
DISL,ioos:station:DISL:CATA:1,2017-12-03T08:00:00Z,30.3085,-88.1395,14.6,11111222 
DISL,ioos:station:DISL:CATA:1,2017-12-03T08:30:00Z,30.3085,-88.1395,14.7,1111122 
DISL,ioos:station:DISL:CATA:1,2017-12-03T09:00:00Z,30.3085,-88.1395,14.6,11111222 
DISL,ioos:station:DISL:CATA:1,2017-12-03T09:30:00Z,30.3085,-88.1395,15.69,1111122 
DISL,ioos:station:DISL:CATA:1,2017-12-03T10:00:00Z,30.3085,-88.1395,16.0,11111222 
DISL,ioos:station:DISL:CATA:1,2017-12-03T10:30:00Z,30.3085,-88.1395,15.34,1111122 
DISL,ioos:station:DISL:CATA:1,2017-12-03T11:00:00Z,30.3085,-88.1395,15.0,11111222 
DISL,ioos:station:DISL:CATA:1,2017-12-03T11:30:00Z,30.3085,-88.1395,15.79,1111122 
DISL,ioos:station:DISL:CATA:1,2017-12-03T12:00:00Z,30.3085,-88.1395,15.7,11111222 
DISL,ioos:station:DISL:CATA:1,2017-12-03T12:30:00Z,30.3085,-88.1395,15.48,1111122 
DISL,ioos:station:DISL:CATA:1,2017-12-03T13:00:00Z,30.3085,-88.1395,15.2,11111222 
DISL,ioos:station:DISL:CATA:1,2017-12-03T13:30:00Z,30.3085,-88.1395,15.21,1111122 
DISL,ioos:station:DISL:CATA:1,2017-12-03T14:00:00Z,30.3085,-88.1395,14.9,11111222 
DISL,ioos:station:DISL:CATA:1,2017-12-03T14:30:00Z,30.3085,-88.1395,14.68,1111122 
DISL,ioos:station:DISL:CATA:1,2017-12-03T15:00:00Z,30.3085,-88.1395,14.7,11111222 
DISL,ioos:station:DISL:CATA:1,2017-12-03T15:30:00Z,30.3085,-88.1395,14.92,1111122 
DISL,ioos:station:DISL:CATA:1,2017-12-03T16:00:00Z,30.3085,-88.1395,15.0,11111222 
DISL,ioos:station:DISL:CATA:1,2017-12-03T16:30:00Z,30.3085,-88.1395,15.19,1111122 
DISL,ioos:station:DISL:CATA:1,2017-12-03T17:00:00Z,30.3085,-88.1395,15.4,11111222 
DISL,ioos:station:DISL:CATA:1,2017-12-03T17:30:00Z,30.3085,-88.1395,15.74,1111122 
DISL,ioos:station:DISL:CATA:1,2017-12-03T18:00:00Z,30.3085,-88.1395,16.1,11111222 
DISL,ioos:station:DISL:CATA:1,2017-12-03T18:30:00Z,30.3085,-88.1395,16.58,1111122 
DISL,ioos:station:DISL:CATA:1,2017-12-03T19:00:00Z,30.3085,-88.1395,17.7,11111222 
DISL,ioos:station:DISL:CATA:1,2017-12-03T19:30:00Z,30.3085,-88.1395,18.5,1111122 
DISL,ioos:station:DISL:CATA:1,2017-12-03T20:00:00Z,30.3085,-88.1395,19.4,11111222 
DISL,ioos:station:DISL:CATA:1,2017-12-03T20:30:00Z,30.3085,-88.1395,18.26,1111122 
DISL,ioos:station:DISL:CATA:1,2017-12-03T21:00:00Z,30.3085,-88.1395,20.4,11111222 
DISL,ioos:station:DISL:CATA:1,2017-12-03T21:30:00Z,30.3085,-88.1395,18.6,1111122 
DISL,ioos:station:DISL:CATA:1,2017-12-03T22:00:00Z,30.3085,-88.1395,18.7,11111222 
DISL,ioos:station:DISL:CATA:1,2017-12-03T22:30:00Z,30.3085,-88.1395,18.94,1111122 
DISL,ioos:station:DISL:CATA:1,2017-12-03T23:00:00Z,30.3085,-88.1395,19.1,11111222 
DISL,ioos:station:DISL:CATA:1,2017-12-03T23:30:00Z,30.3085,-88.1395,18.69,1111122 
DISL,ioos:station:DISL:CATA:1,2017-12-04T00:00:00Z,30.3085,-88.1395,18.4,11111222 
DISL,ioos:station:DISL:CATA:1,2017-12-04T00:30:00Z,30.3085,-88.1395,18.14,1111122 
DISL,ioos:station:DISL:CATA:1,2017-12-04T01:00:00Z,30.3085,-88.1395,17.9,11111222 
DISL,ioos:station:DISL:CATA:1,2017-12-04T01:30:00Z,30.3085,-88.1395,17.46,1111122 
DISL,ioos:station:DISL:CATA:1,2017-12-04T02:00:00Z,30.3085,-88.1395,17.25,1111122 
DISL,ioos:station:DISL:CATA:1,2017-12-04T02:30:00Z,30.3085,-88.1395,16.8,11111222 
DISL,ioos:station:DISL:CATA:1,2017-12-04T03:00:00Z,30.3085,-88.1395,18.1,11111222 
DISL,ioos:station:DISL:CATA:1,2017-12-04T03:30:00Z,30.3085,-88.1395,18.11,1111122 
DISL,ioos:station:DISL:CATA:1,2017-12-04T04:00:00Z,30.3085,-88.1395,17.9,11111222 
DISL,ioos:station:DISL:CATA:1,2017-12-04T04:30:00Z,30.3085,-88.1395,17.8,1111122 
DISL,ioos:station:DISL:CATA:1,2017-12-04T05:00:00Z,30.3085,-88.1395,17.7,11111222 
DISL,ioos:station:DISL:CATA:1,2017-12-04T05:30:00Z,30.3085,-88.1395,17.66,1111122 
DISL,ioos:station:DISL:CATA:1,2017-12-04T06:30:00Z,30.3085,-88.1395,17.49,1111122 
DISL,ioos:station:DISL:CATA:1,2017-12-04T07:00:00Z,30.3085,-88.1395,17.5,11111222 
DISL,ioos:station:DISL:CATA:1,2017-12-04T07:30:00Z,30.3085,-88.1395,17.46,1111122 
DISL,ioos:station:DISL:CATA:1,2017-12-04T08:00:00Z,30.3085,-88.1395,17.3,11111222 
DISL,ioos:station:DISL:CATA:1,2017-12-04T08:30:00Z,30.3085,-88.1395,17.04,1111122 
DISL,ioos:station:DISL:CATA:1,2017-12-04T09:00:00Z,30.3085,-88.1395,16.9,11111222 
DISL,ioos:station:DISL:CATA:1,2017-12-04T09:30:00Z,30.3085,-88.1395,17.08,1111122 
DISL,ioos:station:DISL:CATA:1,2017-12-04T10:00:00Z,30.3085,-88.1395,17.3,11111222 
DISL,ioos:station:DISL:CATA:1,2017-12-04T10:30:00Z,30.3085,-88.1395,17.22,1111122 
DISL,ioos:station:DISL:CATA:1,2017-12-04T11:00:00Z,30.3085,-88.1395,17.3,11111222 
DISL,ioos:station:DISL:CATA:1,2017-12-04T11:30:00Z,30.3085,-88.1395,17.32,1111122 
DISL,ioos:station:DISL:CATA:1,2017-12-04T12:00:00Z,30.3085,-88.1395,17.2,11111222 
DISL,ioos:station:DISL:CATA:1,2017-12-04T12:30:00Z,30.3085,-88.1395,17.22,1111122 
DISL,ioos:station:DISL:CATA:1,2017-12-04T13:00:00Z,30.3085,-88.1395,17.3,11111222 
DISL,ioos:station:DISL:CATA:1,2017-12-04T13:30:00Z,30.3085,-88.1395,17.52,1111122 
DISL,ioos:station:DISL:CATA:1,2017-12-04T14:00:00Z,30.3085,-88.1395,17.6,11111222 
DISL,ioos:station:DISL:CATA:1,2017-12-04T14:30:00Z,30.3085,-88.1395,17.73,1111122 
DISL,ioos:station:DISL:CATA:1,2017-12-04T15:00:00Z,30.3085,-88.1395,17.9,11111222 
DISL,ioos:station:DISL:CATA:1,2017-12-04T15:30:00Z,30.3085,-88.1395,17.99,1111122 
DISL,ioos:station:DISL:CATA:1,2017-12-04T16:00:00Z,30.3085,-88.1395,18.1,11111222 
DISL,ioos:station:DISL:CATA:1,2017-12-04T16:30:00Z,30.3085,-88.1395,18.53,1111122 
DISL,ioos:station:DISL:CATA:1,2017-12-04T17:00:00Z,30.3085,-88.1395,18.9,11111222 
DISL,ioos:station:DISL:CATA:1,2017-12-04T17:30:00Z,30.3085,-88.1395,19.29,1111122 
DISL,ioos:station:DISL:CATA:1,2017-12-04T18:00:00Z,30.3085,-88.1395,19.4,11111222 
DISL,ioos:station:DISL:CATA:1,2017-12-04T18:30:00Z,30.3085,-88.1395,19.49,1111122 
DISL,ioos:station:DISL:CATA:1,2017-12-04T19:00:00Z,30.3085,-88.1395,19.8,11111222 
DISL,ioos:station:DISL:CATA:1,2017-12-04T19:30:00Z,30.3085,-88.1395,20.28,1111122 
DISL,ioos:station:DISL:CATA:1,2017-12-04T20:00:00Z,30.3085,-88.1395,20.3,11111222 
DISL,ioos:station:DISL:CATA:1,2017-12-04T20:30:00Z,30.3085,-88.1395,20.28,1111122 
DISL,ioos:station:DISL:CATA:1,2017-12-04T21:00:00Z,30.3085,-88.1395,20.2,11111222 
DISL,ioos:station:DISL:CATA:1,2017-12-04T21:30:00Z,30.3085,-88.1395,19.84,1111122 
DISL,ioos:station:DISL:CATA:1,2017-12-04T22:00:00Z,30.3085,-88.1395,20.1,11111222 
DISL,ioos:station:DISL:CATA:1,2017-12-04T22:30:00Z,30.3085,-88.1395,19.73,1111122 
DISL,ioos:station:DISL:CATA:1,2017-12-04T23:00:00Z,30.3085,-88.1395,19.5,11111222 
DISL,ioos:station:DISL:CATA:1,2017-12-04T23:30:00Z,30.3085,-88.1395,19.67,1111122 
DISL,ioos:station:DISL:CATA:1,2017-12-05T00:00:00Z,30.3085,-88.1395,19.5,11111222 
DISL,ioos:station:DISL:CATA:1,2017-12-05T00:30:00Z,30.3085,-88.1395,19.51,1111122 
DISL,ioos:station:DISL:CATA:1,2017-12-05T01:00:00Z,30.3085,-88.1395,19.4,11111222 
DISL,ioos:station:DISL:CATA:1,2017-12-05T01:30:00Z,30.3085,-88.1395,19.51,1111122 
DISL,ioos:station:DISL:CATA:1,2017-12-05T02:00:00Z,30.3085,-88.1395,19.4,11111222 
DISL,ioos:station:DISL:CATA:1,2017-12-05T02:30:00Z,30.3085,-88.1395,19.37,1111122 
DISL,ioos:station:DISL:CATA:1,2017-12-05T03:00:00Z,30.3085,-88.1395,19.4,11111222 
DISL,ioos:station:DISL:CATA:1,2017-12-05T03:30:00Z,30.3085,-88.1395,19.37,1111122 
DISL,ioos:station:DISL:CATA:1,2017-12-05T04:00:00Z,30.3085,-88.1395,19.4,11111222 
DISL,ioos:station:DISL:CATA:1,2017-12-05T04:30:00Z,30.3085,-88.1395,19.51,1111122 
DISL,ioos:station:DISL:CATA:1,2017-12-05T05:00:00Z,30.3085,-88.1395,19.4,11111222 
DISL,ioos:station:DISL:CATA:1,2017-12-05T05:30:00Z,30.3085,-88.1395,19.31,1111122 
DISL,ioos:station:DISL:CATA:1,2017-12-05T06:30:00Z,30.3085,-88.1395,19.34,1111122 
DISL,ioos:station:DISL:CATA:1,2017-12-05T07:00:00Z,30.3085,-88.1395,19.7,11111222 
DISL,ioos:station:DISL:CATA:1,2017-12-05T07:30:00Z,30.3085,-88.1395,20.03,1111122 
DISL,ioos:station:DISL:CATA:1,2017-12-05T08:00:00Z,30.3085,-88.1395,19.9,11111222 
DISL,ioos:station:DISL:CATA:1,2017-12-05T08:30:00Z,30.3085,-88.1395,19.65,1111122 
DISL,ioos:station:DISL:CATA:1,2017-12-05T09:00:00Z,30.3085,-88.1395,19.8,11111222 
DISL,ioos:station:DISL:CATA:1,2017-12-05T09:30:00Z,30.3085,-88.1395,20.61,1111122 
DISL,ioos:station:DISL:CATA:1,2017-12-05T10:00:00Z,30.3085,-88.1395,21.0,11111222 
DISL,ioos:station:DISL:CATA:1,2017-12-05T10:30:00Z,30.3085,-88.1395,21.32,1111122 
DISL,ioos:station:DISL:CATA:1,2017-12-05T11:00:00Z,30.3085,-88.1395,21.3,11111222 
DISL,ioos:station:DISL:CATA:1,2017-12-05T11:30:00Z,30.3085,-88.1395,21.07,1111122 
DISL,ioos:station:DISL:CATA:1,2017-12-05T12:00:00Z,30.3085,-88.1395,21.7,11111222 
DISL,ioos:station:DISL:CATA:1,2017-12-05T12:30:00Z,30.3085,-88.1395,21.48,1111122 
DISL,ioos:station:DISL:CATA:1,2017-12-05T13:00:00Z,30.3085,-88.1395,21.4,11111222 
DISL,ioos:station:DISL:CATA:1,2017-12-05T13:30:00Z,30.3085,-88.1395,21.31,1111122 
DISL,ioos:station:DISL:CATA:1,2017-12-05T14:00:00Z,30.3085,-88.1395,21.6,11111222 
DISL,ioos:station:DISL:CATA:1,2017-12-05T14:30:00Z,30.3085,-88.1395,21.69,1111122 
DISL,ioos:station:DISL:CATA:1,2017-12-05T15:00:00Z,30.3085,-88.1395,22.2,11111222 
DISL,ioos:station:DISL:CATA:1,2017-12-05T15:30:00Z,30.3085,-88.1395,22.95,1111122 
DISL,ioos:station:DISL:CATA:1,2017-12-05T16:00:00Z,30.3085,-88.1395,22.5,11111222 
DISL,ioos:station:DISL:CATA:1,2017-12-05T16:30:00Z,30.3085,-88.1395,22.65,1111122 
DISL,ioos:station:DISL:CATA:1,2017-12-05T17:00:00Z,30.3085,-88.1395,21.8,11111222 
DISL,ioos:station:DISL:CATA:1,2017-12-05T17:30:00Z,30.3085,-88.1395,21.93,1111122 
DISL,ioos:station:DISL:CATA:1,2017-12-05T18:00:00Z,30.3085,-88.1395,21.6,11111222 
DISL,ioos:station:DISL:CATA:1,2017-12-05T18:30:00Z,30.3085,-88.1395,20.97,1111122 
DISL,ioos:station:DISL:CATA:1,2017-12-05T19:00:00Z,30.3085,-88.1395,20.7,11111222 
DISL,ioos:station:DISL:CATA:1,2017-12-05T19:30:00Z,30.3085,-88.1395,20.86,1111122 
DISL,ioos:station:DISL:CATA:1,2017-12-05T20:00:00Z,30.3085,-88.1395,21.2,11111222 
DISL,ioos:station:DISL:CATA:1,2017-12-05T20:30:00Z,30.3085,-88.1395,21.48,1111122 
DISL,ioos:station:DISL:CATA:1,2017-12-05T21:00:00Z,30.3085,-88.1395,21.5,11111222 
DISL,ioos:station:DISL:CATA:1,2017-12-05T21:30:00Z,30.3085,-88.1395,21.44,1111122 
DISL,ioos:station:DISL:CATA:1,2017-12-05T22:00:00Z,30.3085,-88.1395,21.3,11111222 
DISL,ioos:station:DISL:CATA:1,2017-12-05T22:30:00Z,30.3085,-88.1395,21.03,1111122 
DISL,ioos:station:DISL:CATA:1,2017-12-05T23:00:00Z,30.3085,-88.1395,20.8,11111222 
DISL,ioos:station:DISL:CATA:1,2017-12-05T23:30:00Z,30.3085,-88.1395,20.45,1111122 
DISL,ioos:station:DISL:CATA:1,2017-12-06T00:00:00Z,30.3085,-88.1395,20.5,11111222 
DISL,ioos:station:DISL:CATA:1,2017-12-06T00:30:00Z,30.3085,-88.1395,20.59,1111122 
DISL,ioos:station:DISL:CATA:1,2017-12-06T01:00:00Z,30.3085,-88.1395,19.5,11111222 
DISL,ioos:station:DISL:CATA:1,2017-12-06T01:30:00Z,30.3085,-88.1395,19.06,1111122 
DISL,ioos:station:DISL:CATA:1,2017-12-06T02:00:00Z,30.3085,-88.1395,19.0,11111222 
DISL,ioos:station:DISL:CATA:1,2017-12-06T02:30:00Z,30.3085,-88.1395,18.93,1111122 
DISL,ioos:station:DISL:CATA:1,2017-12-06T03:00:00Z,30.3085,-88.1395,19.1,11111222 
DISL,ioos:station:DISL:CATA:1,2017-12-06T03:30:00Z,30.3085,-88.1395,18.86,1111122 
DISL,ioos:station:DISL:CATA:1,2017-12-06T04:00:00Z,30.3085,-88.1395,18.8,11111222 
DISL,ioos:station:DISL:CATA:1,2017-12-06T04:30:00Z,30.3085,-88.1395,17.39,1111122 
DISL,ioos:station:DISL:CATA:1,2017-12-06T05:00:00Z,30.3085,-88.1395,17.1,11111222 
DISL,ioos:station:DISL:CATA:1,2017-12-06T05:30:00Z,30.3085,-88.1395,16.6,1111122 
DISL,ioos:station:DISL:CATA:1,2017-12-06T06:30:00Z,30.3085,-88.1395,14.44,1111122 
DISL,ioos:station:DISL:CATA:1,2017-12-06T07:00:00Z,30.3085,-88.1395,14.3,11111222 
DISL,ioos:station:DISL:CATA:1,2017-12-06T07:30:00Z,30.3085,-88.1395,13.97,1111122 
DISL,ioos:station:DISL:CATA:1,2017-12-06T08:00:00Z,30.3085,-88.1395,13.7,11111222 
DISL,ioos:station:DISL:CATA:1,2017-12-06T08:30:00Z,30.3085,-88.1395,13.15,1111122 
DISL,ioos:station:DISL:CATA:1,2017-12-06T09:00:00Z,30.3085,-88.1395,12.4,11111222 
DISL,ioos:station:DISL:CATA:1,2017-12-06T09:30:00Z,30.3085,-88.1395,11.06,1111122 
DISL,ioos:station:DISL:CATA:1,2017-12-06T10:00:00Z,30.3085,-88.1395,10.8,11111222 
DISL,ioos:station:DISL:CATA:1,2017-12-06T10:30:00Z,30.3085,-88.1395,10.41,1111122 
DISL,ioos:station:DISL:CATA:1,2017-12-06T11:00:00Z,30.3085,-88.1395,10.1,11111222 
DISL,ioos:station:DISL:CATA:1,2017-12-06T11:30:00Z,30.3085,-88.1395,9.66,1111122 
DISL,ioos:station:DISL:CATA:1,2017-12-06T12:00:00Z,30.3085,-88.1395,9.9,11111222 
DISL,ioos:station:DISL:CATA:1,2017-12-06T12:30:00Z,30.3085,-88.1395,9.73,1111122 
DISL,ioos:station:DISL:CATA:1,2017-12-06T13:00:00Z,30.3085,-88.1395,9.7,11111222 
DISL,ioos:station:DISL:CATA:1,2017-12-06T13:30:00Z,30.3085,-88.1395,9.05,1111122 
DISL,ioos:station:DISL:CATA:1,2017-12-06T14:00:00Z,30.3085,-88.1395,8.7,11111222 
DISL,ioos:station:DISL:CATA:1,2017-12-06T14:30:00Z,30.3085,-88.1395,8.82,1111122 
DISL,ioos:station:DISL:CATA:1,2017-12-06T15:00:00Z,30.3085,-88.1395,8.0,11111222 
DISL,ioos:station:DISL:CATA:1,2017-12-06T15:30:00Z,30.3085,-88.1395,8.03,1111122 
DISL,ioos:station:DISL:CATA:1,2017-12-06T16:00:00Z,30.3085,-88.1395,7.9,11111222 
DISL,ioos:station:DISL:CATA:1,2017-12-06T16:30:00Z,30.3085,-88.1395,7.307,1111122 
DISL,ioos:station:DISL:CATA:1,2017-12-06T17:00:00Z,30.3085,-88.1395,7.2,11111222 
DISL,ioos:station:DISL:CATA:1,2017-12-06T17:30:00Z,30.3085,-88.1395,7.067,1111122 
DISL,ioos:station:DISL:CATA:1,2017-12-06T18:00:00Z,30.3085,-88.1395,7.7,11111222 
DISL,ioos:station:DISL:CATA:1,2017-12-06T18:30:00Z,30.3085,-88.1395,9.26,1111122 
DISL,ioos:station:DISL:CATA:1,2017-12-06T19:00:00Z,30.3085,-88.1395,8.9,11111222 
DISL,ioos:station:DISL:CATA:1,2017-12-06T19:30:00Z,30.3085,-88.1395,8.51,1111122 
DISL,ioos:station:DISL:CATA:1,2017-12-06T20:00:00Z,30.3085,-88.1395,9.4,11111222 
DISL,ioos:station:DISL:CATA:1,2017-12-06T20:30:00Z,30.3085,-88.1395,9.47,1111122 
DISL,ioos:station:DISL:CATA:1,2017-12-06T21:00:00Z,30.3085,-88.1395,8.2,11111222 
DISL,ioos:station:DISL:CATA:1,2017-12-06T21:30:00Z,30.3085,-88.1395,7.135,1111122 
DISL,ioos:station:DISL:CATA:1,2017-12-06T22:00:00Z,30.3085,-88.1395,7.6,11111222 
DISL,ioos:station:DISL:CATA:1,2017-12-06T22:30:00Z,30.3085,-88.1395,7.17,1111122 
DISL,ioos:station:DISL:CATA:1,2017-12-06T23:00:00Z,30.3085,-88.1395,6.8,11111222 
DISL,ioos:station:DISL:CATA:1,2017-12-06T23:30:00Z,30.3085,-88.1395,7.036,1111122 
DISL,ioos:station:DISL:CATA:1,2017-12-07T00:00:00Z,30.3085,-88.1395,6.6,11111222 
DISL,ioos:station:DISL:CATA:1,2017-12-07T00:30:00Z,30.3085,-88.1395,7.933,1111122 
DISL,ioos:station:DISL:CATA:1,2017-12-07T01:00:00Z,30.3085,-88.1395,8.1,11111222 
DISL,ioos:station:DISL:CATA:1,2017-12-07T01:30:00Z,30.3085,-88.1395,7.822,1111122 
DISL,ioos:station:DISL:CATA:1,2017-12-07T02:00:00Z,30.3085,-88.1395,6.9,11111222 
DISL,ioos:station:DISL:CATA:1,2017-12-07T02:30:00Z,30.3085,-88.1395,6.213,1111122 